This demonstration page uses our WeatherBlox Daily Observations layout. Learn more.

Left ArrowRight Arrow

Hourly Observations for January 21, 2022

Temp ( °F °C ) Dew Point ( °F °C ) Humidity (%) Winds ( mph kmh ) Pressure ( in mb ) Visibility ( mi km ) Precip ( " mm )
12:52 am 00:52 Clear 4 -15.6 -3 -19.4 73 73 SSE 8 13 30.58 1036 10 16 0.00 0.00
1:52 am 01:52 Clear 2 -16.7 -4 -20 76 76 SSE 9 15 30.57 1035 10 16 0.00 0.00
2:52 am 02:52 Clear 2 -16.7 -4 -20 76 76 SSE 10 17 30.55 1035 10 16 0.00 0.00
3:52 am 03:52 Clear 4 -15.6 -3 -19.4 73 73 SSE 12 19 30.53 1034 10 16 0.00 0.00
4:52 am 04:52 Clear 4 -15.6 -3 -19.4 73 73 S 12 19 30.51 1033 10 16 0.00 0.00
5:52 am 05:52 Clear 4 -15.6 -2 -18.9 76 76 SSE 13 20 30.49 1033 10 16 0.00 0.00
6:52 am 06:52 Clear 4 -15.6 -2 -18.9 76 76 S 16 26 30.49 1033 10 16 0.00 0.00
7:52 am 07:52 Sunny 4 -15.6 -2 -18.9 76 76 S 13 20 30.50 1033 10 16 0.00 0.00
8:52 am 08:52 Sunny 6 -14.4 -1 -18.3 73 73 SSE 13 20 30.50 1033 10 16 0.00 0.00
9:52 am 09:52 Mostly Sunny 9 -12.8 1 -17.2 70 70 SSE 16 26 30.48 1032 10 16 0.00 0.00
10:52 am 10:52 Mostly Sunny 14 -10 4 -15.6 64 64 S 16 26 30.48 1032 10 16 0.00 0.00
11:52 am 11:52 Partly Cloudy 18 -7.8 5 -15 57 57 S 16 26 30.45 1031 10 16 0.00 0.00
12:52 pm 12:52 Mostly Cloudy 21 -6.1 6 -14.4 52 52 S 17 28 30.41 1030 10 16 0.00 0.00
1:52 pm 13:52 Mostly Cloudy 23 -5 8 -13.3 53 53 S 18 30 30.37 1029 10 16 0.00 0.00
2:52 pm 14:52 Mostly Cloudy 25 -3.9 8 -13.3 48 48 S 21 33 30.33 1027 10 16 0.00 0.00
3:52 pm 15:52 Cloudy 26 -3.3 8 -13.3 46 46 S 24 39 30.31 1027 10 16 0.00 0.00
4:52 pm 16:52 Cloudy 26 -3.3 9 -12.8 48 48 S 20 31 30.31 1026 10 16 0.00 0.00
5:52 pm 17:52 Cloudy 27 -2.8 11 -11.7 51 51 S 10 17 30.33 1027 10 16 0.00 0.00
6:52 pm 18:52 Cloudy 28 -2.2 11 -11.7 49 49 SSW 9 15 30.36 1028 10 16 0.00 0.00
7:52 pm 19:52 Cloudy 30 -1.1 11 -11.7 45 45 SW 10 17 30.36 1028 10 16 0.00 0.00
8:52 pm 20:52 Cloudy 29 -1.7 11 -11.7 47 47 S 10 17 30.34 1028 10 16 0.00 0.00
9:52 pm 21:52 Cloudy 30 -1.1 10 -12.2 43 43 S 7 11 30.34 1027 10 16 0.00 0.00
10:52 pm 22:52 Cloudy 31 -0.6 10 -12.2 42 42 S 9 15 30.33 1027 10 16 0.00 0.00
11:27 pm 23:27 Cloudy 31 -0.6 11 -11.7 43 43 S 8 13 30.35 1028 10 16 0.00 0.00
11:52 pm 23:52 Cloudy 31 -0.6 12 -11.1 45 45 S 8 13 30.32 1027 10 16 0.00 0.00

Powered by AerisWeather